����,���ϕ���(m/s),���ϕ���,�ő�u�ԕ���(m/s),�ő啗��������,�C��(��),���x(%),10���Ԉړ��ώZ�J��(mm),1���Ԉړ��ώZ�J��(mm),���J��(mm),�݌v�J��(mm)
2024-05-13T00:00:00+09:00,2.9,�쓌,6.5,�쓌,17.7,98.8,1.5,9,20,20
2024-05-13T00:01:00+09:00,3.2,�쓌,7.1,���쓌,17.6,98.8,1.5,9,0,20
2024-05-13T00:02:00+09:00,3.4,�쓌,7.1,���쓌,17.7,98.8,2,9.5,0.5,20.5
2024-05-13T00:03:00+09:00,3.6,�쓌,7.1,���쓌,17.6,98.8,1.5,9,0.5,20.5
2024-05-13T00:04:00+09:00,3.7,�쓌,7.1,���쓌,17.6,98.9,1.5,9,0.5,20.5
2024-05-13T00:05:00+09:00,3.7,�쓌,7.1,���쓌,17.6,98.9,2,9.5,1,21
2024-05-13T00:06:00+09:00,3.7,�쓌,7.1,���쓌,17.5,99,2,9.5,1,21
2024-05-13T00:07:00+09:00,3.6,�쓌,7.1,���쓌,17.4,99,1.5,9.5,1,21
2024-05-13T00:08:00+09:00,3.4,�쓌,7.1,���쓌,17.4,99.1,2,9.5,1.5,21.5
2024-05-13T00:09:00+09:00,3.2,�쓌,7.1,���쓌,17.5,99.2,2,9.5,1.5,21.5
2024-05-13T00:10:00+09:00,3,�쓌,7.1,���쓌,17.6,99.3,1.5,9.5,1.5,21.5
2024-05-13T00:11:00+09:00,2.8,�쓌,6.8,�쓌,17.5,99.2,1.5,9.5,1.5,21.5
2024-05-13T00:12:00+09:00,2.5,�쓌,5.9,�쓌,17.5,99.2,1.5,9.5,2,22
2024-05-13T00:13:00+09:00,2.4,�쓌,5.9,�쓌,17.6,99.2,1.5,9.5,2,22
2024-05-13T00:14:00+09:00,2.4,�쓌,5.9,�쓌,17.6,99.2,1.5,9.5,2,22
2024-05-13T00:15:00+09:00,2.4,���쓌,4.9,�쓌,17.6,99.2,1,9.5,2,22
2024-05-13T00:16:00+09:00,2.4,���쓌,4.7,���쓌,17.6,99.2,1.5,9.5,2.5,22.5
2024-05-13T00:17:00+09:00,2.3,���쓌,4.7,���쓌,17.6,99.2,1.5,9.5,2.5,22.5
2024-05-13T00:18:00+09:00,2.3,���쓌,4.7,���쓌,17.6,99.2,1,9.5,2.5,22.5
2024-05-13T00:19:00+09:00,2.2,���쓌,4.7,���쓌,17.5,99.2,1,9.5,2.5,22.5
2024-05-13T00:20:00+09:00,2.2,���쓌,4.7,���쓌,17.6,99.2,1.5,9.5,3,23
2024-05-13T00:21:00+09:00,2.1,���쓌,4.7,���쓌,17.6,99.3,1.5,9.5,3,23
2024-05-13T00:22:00+09:00,2,���쓌,4.7,���쓌,17.6,99.2,1,9,3,23
2024-05-13T00:23:00+09:00,1.9,���쓌,4.7,���쓌,17.6,99.2,1,9,3,23
2024-05-13T00:24:00+09:00,1.8,���쓌,4.6,���쓌,17.6,99.2,1,9,3,23
2024-05-13T00:25:00+09:00,1.7,���쓌,4.6,���쓌,17.6,99.2,1.5,9,3.5,23.5
2024-05-13T00:26:00+09:00,1.7,���쓌,4.7,�쓌,17.6,99.2,1,9,3.5,23.5
2024-05-13T00:27:00+09:00,1.7,���쓌,4.7,�쓌,17.6,99.1,1,9,3.5,23.5
2024-05-13T00:28:00+09:00,1.7,���쓌,4.7,�쓌,17.6,99.1,1,9,3.5,23.5
2024-05-13T00:29:00+09:00,1.8,���쓌,4.7,�쓌,17.6,99.2,1.5,9,4,24
2024-05-13T00:30:00+09:00,1.8,���쓌,4.7,�쓌,17.7,99.2,1,9,4,24
2024-05-13T00:31:00+09:00,1.8,���쓌,4.7,�쓌,17.7,99.2,1,9,4,24
2024-05-13T00:32:00+09:00,,,,,,,,,,
2024-05-13T00:33:00+09:00,2,���쓌,4.7,�쓌,17.6,99.1,1,8.5,4,24
2024-05-13T00:34:00+09:00,1.9,���쓌,4.7,�쓌,17.6,99.1,1.5,9,4.5,24.5
2024-05-13T00:35:00+09:00,1.8,���쓌,4.7,�쓌,17.6,99.1,1,9,4.5,24.5
2024-05-13T00:36:00+09:00,1.7,���쓌,4,�쓌,17.6,99.2,1,8.5,4.5,24.5
2024-05-13T00:37:00+09:00,1.6,���쓌,4,�쓌,17.6,99.1,1,8.5,4.5,24.5
2024-05-13T00:38:00+09:00,1.5,���쓌,4,�쓌,17.7,99.2,1,8.5,4.5,24.5
2024-05-13T00:39:00+09:00,1.5,���쓌,4,�쓌,17.7,99.1,0.5,8.5,4.5,24.5
2024-05-13T00:40:00+09:00,1.4,���쓌,4,�쓌,17.7,99.1,1,8.5,5,25
2024-05-13T00:41:00+09:00,1.4,���쓌,4,�쓌,17.7,99.1,1,8.5,5,25
2024-05-13T00:42:00+09:00,1.4,���쓌,4,�쓌,17.7,99.1,1,8.5,5,25
2024-05-13T00:43:00+09:00,1.3,���쓌,3.5,���쓌,17.7,99,1,8,5,25
2024-05-13T00:44:00+09:00,1.4,���쓌,3.5,���쓌,17.6,99,0.5,8,5,25
2024-05-13T00:45:00+09:00,1.4,���쓌,3.5,���쓌,17.7,99,0.5,7.5,5,25
2024-05-13T00:46:00+09:00,1.4,���쓌,3.5,���쓌,17.7,99,0.5,7.5,5,25
2024-05-13T00:47:00+09:00,1.3,���쓌,3.5,���쓌,17.8,99,0.5,7,5,25
2024-05-13T00:48:00+09:00,1.3,���쓌,3.5,���쓌,17.8,99,1,7.5,5.5,25.5
2024-05-13T00:49:00+09:00,1.2,���쓌,3.5,���쓌,17.8,98.9,1,7,5.5,25.5
2024-05-13T00:50:00+09:00,1.1,���쓌,3.5,���쓌,17.8,98.9,0.5,7,5.5,25.5
2024-05-13T00:51:00+09:00,0.9,���쓌,2.7,���쓌,17.7,98.8,0.5,7,5.5,25.5
2024-05-13T00:52:00+09:00,0.9,��,2.7,���쓌,17.8,98.9,0.5,7,5.5,25.5
2024-05-13T00:53:00+09:00,0.9,��,3.1,���k��,17.8,98.8,0.5,6.5,5.5,25.5
2024-05-13T00:54:00+09:00,0.9,��,3.1,���k��,17.9,98.8,0.5,6.5,5.5,25.5
2024-05-13T00:55:00+09:00,0.9,��,3.1,���k��,17.8,98.8,0.5,6.5,5.5,25.5
2024-05-13T00:56:00+09:00,1,���k��,3.1,���k��,17.8,98.8,0.5,6.5,5.5,25.5
2024-05-13T00:57:00+09:00,1,���k��,3.1,���k��,17.8,98.8,1,6.5,6,26
2024-05-13T00:58:00+09:00,1,�k��,3.1,���k��,17.8,98.9,0.5,6.5,6,26
2024-05-13T00:59:00+09:00,1.1,���k��,3.1,���k��,17.8,98.9,0.5,6.5,6,26
2024-05-13T01:00:00+09:00,1.2,�k��,3.1,���k��,17.7,98.9,0.5,6,6,26
2024-05-13T01:01:00+09:00,1.2,�k��,3.1,���k��,17.7,98.9,0.5,6,6,26
2024-05-13T01:02:00+09:00,1.1,�k��,3.1,���k��,17.7,99,0.5,5.5,6,26
2024-05-13T01:03:00+09:00,1,�k�k��,2.6,��,17.7,99,0.5,5.5,6,26
2024-05-13T01:04:00+09:00,1,�k�k��,2.1,�k,17.6,99.1,0.5,5.5,6,26
2024-05-13T01:05:00+09:00,1,�k,2.1,�k,17.6,99.2,1,5.5,6.5,26.5
2024-05-13T01:06:00+09:00,0.9,�k,2.1,�k,17.7,99.2,1,5.5,6.5,26.5
2024-05-13T01:07:00+09:00,0.9,�k,2.1,�k,17.7,99.3,0.5,5.5,6.5,26.5
2024-05-13T01:08:00+09:00,0.9,�k,2.3,�k,17.7,99.2,0.5,5,6.5,26.5
2024-05-13T01:09:00+09:00,1.1,�k,3.1,�k�k��,17.6,99.2,1,5.5,7,27
2024-05-13T01:10:00+09:00,1.2,�k�k��,3.4,�k�k��,17.5,99.2,1,5.5,7,27
2024-05-13T01:11:00+09:00,1.3,�k�k��,3.4,�k�k��,17.5,99.3,1,5.5,7,27
2024-05-13T01:12:00+09:00,1.5,�k�k��,3.4,�k�k��,17.5,99.4,1,5,7,27
2024-05-13T01:13:00+09:00,1.5,�k�k��,3.4,�k�k��,17.4,99.4,1,5,7,27
2024-05-13T01:14:00+09:00,1.5,�k�k��,3.4,�k�k��,17.4,99.5,1,5,7,27
2024-05-13T01:15:00+09:00,1.6,�k�k��,3.4,�k�k��,17.4,99.5,1,5.5,7.5,27.5
2024-05-13T01:16:00+09:00,1.7,�k�k��,3.4,�k�k��,17.4,99.6,1,5,7.5,27.5
2024-05-13T01:17:00+09:00,1.8,�k�k��,3.4,�k�k��,17.4,99.7,1,5,7.5,27.5
2024-05-13T01:18:00+09:00,1.7,�k�k��,3.4,�k�k��,17.4,99.7,1,5,7.5,27.5
2024-05-13T01:19:00+09:00,1.5,�k�k��,3.4,�k�k��,17.4,99.7,0.5,5,7.5,27.5
2024-05-13T01:20:00+09:00,1.3,�k�k��,2.9,�k�k��,17.4,99.7,1,5,8,28
2024-05-13T01:21:00+09:00,1.2,�k��,2.9,�k�k��,17.4,99.8,1,5,8,28
2024-05-13T01:22:00+09:00,1.2,�k��,2.9,�k�k��,17.3,99.8,1,5,8,28
2024-05-13T01:23:00+09:00,1.1,�k�k��,2.9,�k�k��,17.4,99.9,1,5,8,28
2024-05-13T01:24:00+09:00,0.9,�k�k��,2.9,�k�k��,17.5,99.9,1,5,8,28
2024-05-13T01:25:00+09:00,0.8,�k�k��,1.8,���k��,17.4,99.9,0.5,4.5,8,28
2024-05-13T01:26:00+09:00,0.8,�k�k��,2.1,�k,17.4,99.9,0.5,4.5,8,28
2024-05-13T01:27:00+09:00,0.8,�k�k��,2.1,�k,17.5,99.9,0.5,4.5,8,28
2024-05-13T01:28:00+09:00,0.8,�k,2.1,�k,17.5,99.9,0.5,4.5,8,28
2024-05-13T01:29:00+09:00,0.8,�k,2.1,�k,17.5,99.9,0.5,4,8,28
2024-05-13T01:30:00+09:00,0.7,�k�k��,2.1,�k,17.6,99.9,0,4,8,28
2024-05-13T01:31:00+09:00,0.7,�k�k��,2.1,�k,17.5,99.9,0.5,4.5,8.5,28.5
2024-05-13T01:32:00+09:00,0.8,�k�k��,2.1,�k,17.5,99.9,0.5,4.5,8.5,28.5
2024-05-13T01:33:00+09:00,0.8,�k�k��,2.1,�k,17.5,99.9,0.5,4.5,8.5,28.5
2024-05-13T01:34:00+09:00,0.8,�k�k��,2.1,�k,17.5,99.9,0.5,4,8.5,28.5
2024-05-13T01:35:00+09:00,0.9,�k�k��,2.1,�k,17.5,99.8,0.5,4,8.5,28.5
2024-05-13T01:36:00+09:00,0.8,�k�k��,2,�k�k��,17.5,99.8,0.5,4,8.5,28.5
2024-05-13T01:37:00+09:00,0.8,�k�k��,2,�k�k��,17.5,99.8,0.5,4,8.5,28.5
2024-05-13T01:38:00+09:00,0.8,�k�k��,2,�k�k��,17.5,99.8,0.5,4,8.5,28.5
2024-05-13T01:39:00+09:00,0.9,�k,2,�k�k��,17.4,99.8,0.5,4,8.5,28.5
2024-05-13T01:40:00+09:00,0.8,�k,2,�k�k��,17.4,99.8,0.5,3.5,8.5,28.5
2024-05-13T01:41:00+09:00,0.8,�k,2,�k�k��,17.4,99.8,0,3.5,8.5,28.5
2024-05-13T01:42:00+09:00,0.9,�k,2,�k�k��,17.4,99.8,0.5,4,9,29
2024-05-13T01:43:00+09:00,0.9,�k�k��,2,�k�k��,17.4,99.8,0.5,4,9,29
2024-05-13T01:44:00+09:00,0.9,�k�k��,1.9,�k�k��,17.3,99.8,0.5,4,9,29
2024-05-13T01:45:00+09:00,1,�k�k��,2.4,�k�k��,17.3,99.8,0.5,4,9,29
2024-05-13T01:46:00+09:00,1,�k�k��,2.4,�k�k��,17.3,99.9,0.5,4,9,29
2024-05-13T01:47:00+09:00,1.1,�k�k��,2.4,�k�k��,17.3,99.9,0.5,4,9,29
2024-05-13T01:48:00+09:00,1.2,�k��,2.5,�k��,17.3,99.9,0.5,3.5,9,29
2024-05-13T01:49:00+09:00,1.3,�k��,2.5,�k��,17.3,99.9,0.5,3.5,9,29
2024-05-13T01:50:00+09:00,1.5,�k��,2.6,�k��,17.3,99.9,0.5,3.5,9,29
2024-05-13T01:51:00+09:00,1.7,�k��,2.6,�k��,17.3,100,0.5,3.5,9,29
2024-05-13T01:52:00+09:00,1.7,�k��,2.6,�k��,17.3,100,0,3.5,9,29
2024-05-13T01:53:00+09:00,1.6,�k�k��,2.6,�k��,17.3,100,0,3.5,9,29
2024-05-13T01:54:00+09:00,1.6,�k�k��,2.6,�k��,17.2,100,0,3.5,9,29
2024-05-13T01:55:00+09:00,1.6,�k�k��,2.6,�k��,17.2,100,0.5,4,9.5,29.5
2024-05-13T01:56:00+09:00,1.6,�k��,2.6,�k��,17.2,100,0.5,4,9.5,29.5
2024-05-13T01:57:00+09:00,1.6,�k��,2.6,�k��,17.2,100,0.5,3.5,9.5,29.5
2024-05-13T01:58:00+09:00,1.6,�k��,2.6,�k��,17.2,100,0.5,3.5,9.5,29.5
2024-05-13T01:59:00+09:00,1.6,�k��,2.6,�k��,17.2,100,0.5,3.5,9.5,29.5
2024-05-13T02:00:00+09:00,1.5,�k��,2.6,�k,17.2,100,0.5,3.5,9.5,29.5
2024-05-13T02:01:00+09:00,1.4,�k�k��,2.9,�k�k��,17.3,100,0.5,3.5,9.5,29.5
2024-05-13T02:02:00+09:00,1.5,�k�k��,3.1,�k�k��,17.2,100,0.5,3.5,9.5,29.5
2024-05-13T02:03:00+09:00,1.6,�k��,3.1,�k�k��,17.2,100,0.5,3.5,9.5,29.5
2024-05-13T02:04:00+09:00,1.7,�k��,3.1,�k�k��,17.2,100,0.5,3.5,9.5,29.5
2024-05-13T02:05:00+09:00,1.8,�k��,3.1,�k�k��,17.2,100,0,3,9.5,29.5
2024-05-13T02:06:00+09:00,1.8,�k�k��,3.1,�k�k��,17.2,100,0,3,9.5,29.5
2024-05-13T02:07:00+09:00,1.8,�k�k��,3.1,�k�k��,17.2,100,0,3,9.5,29.5
2024-05-13T02:08:00+09:00,1.8,�k�k��,3.1,�k�k��,17.2,100,0,3,9.5,29.5
2024-05-13T02:09:00+09:00,1.8,�k�k��,3.1,�k�k��,17.2,100,0.5,3,10,30
2024-05-13T02:10:00+09:00,1.8,�k�k��,3.1,�k�k��,17.2,100,0.5,3,10,30
2024-05-13T02:11:00+09:00,1.8,�k��,3.1,�k�k��,17.2,100,0.5,3,10,30
2024-05-13T02:12:00+09:00,1.7,�k��,2.9,�k�k��,17.2,100,0.5,3,10,30
2024-05-13T02:13:00+09:00,1.6,�k��,2.5,�k��,17.2,100,0.5,3,10,30
2024-05-13T02:14:00+09:00,1.6,�k��,2.5,�k��,17.2,100,0.5,3,10,30
2024-05-13T02:15:00+09:00,1.5,�k��,2.3,�k�k��,17.2,100,0.5,2.5,10,30
2024-05-13T02:16:00+09:00,1.4,�k��,2.3,�k�k��,17.2,100,0.5,2.5,10,30
2024-05-13T02:17:00+09:00,1.4,�k��,2.7,�k,17.2,100,0.5,2.5,10,30
2024-05-13T02:18:00+09:00,1.4,�k�k��,2.7,�k,17.2,100,0.5,2.5,10,30
2024-05-13T02:19:00+09:00,1.5,�k�k��,2.7,�k,17.2,100,0,2.5,10,30
2024-05-13T02:20:00+09:00,1.4,�k�k��,2.7,�k,17.2,100,0,2,10,30
2024-05-13T02:21:00+09:00,1.5,�k�k��,3.2,�k,17.2,100,0,2,10,30
2024-05-13T02:22:00+09:00,1.6,�k�k��,3.2,�k,17.2,100,0.5,2.5,10.5,30.5
2024-05-13T02:23:00+09:00,1.7,�k�k��,3.2,�k,17.2,100,0.5,2.5,10.5,30.5
2024-05-13T02:24:00+09:00,1.8,�k,3.4,�k,17.2,100,0.5,2.5,10.5,30.5
2024-05-13T02:25:00+09:00,1.9,�k,3.9,�k,17.2,100,0.5,2.5,10.5,30.5
2024-05-13T02:26:00+09:00,2,�k,3.9,�k,17.2,100,0.5,2.5,10.5,30.5
2024-05-13T02:27:00+09:00,2,�k,3.9,�k,17.2,100,0.5,2.5,10.5,30.5
2024-05-13T02:28:00+09:00,2,�k,3.9,�k,17.2,100,0.5,2.5,10.5,30.5
2024-05-13T02:29:00+09:00,2,�k,3.9,�k,17.3,100,0.5,2.5,10.5,30.5
2024-05-13T02:30:00+09:00,2,�k,3.9,�k,17.3,100,0.5,2.5,10.5,30.5
2024-05-13T02:31:00+09:00,2,�k,3.9,�k,17.3,100,0.5,2,10.5,30.5
2024-05-13T02:32:00+09:00,2.1,�k,3.9,�k,17.3,100,0,2,10.5,30.5
2024-05-13T02:33:00+09:00,2.1,�k,3.9,�k,17.2,100,0,2,10.5,30.5
2024-05-13T02:34:00+09:00,2,�k,3.9,�k,17.2,100,0.5,2.5,11,31
2024-05-13T02:35:00+09:00,1.9,�k,3.7,�k,17.2,100,0.5,2.5,11,31
2024-05-13T02:36:00+09:00,1.9,�k,3.7,�k,17.3,100,0.5,2.5,11,31
2024-05-13T02:37:00+09:00,1.9,�k,3.7,�k,17.3,100,0.5,2.5,11,31
2024-05-13T02:38:00+09:00,1.8,�k,3.7,�k,17.3,100,0.5,2.5,11,31
2024-05-13T02:39:00+09:00,1.9,�k,4.3,�k�k��,17.3,100,0.5,2.5,11,31
2024-05-13T02:40:00+09:00,1.9,�k,4.3,�k�k��,17.3,99.9,0.5,2.5,11,31
2024-05-13T02:41:00+09:00,1.9,�k,4.3,�k�k��,17.3,99.9,0.5,2.5,11,31
2024-05-13T02:42:00+09:00,1.8,�k,4.3,�k�k��,17.4,99.9,0.5,2,11,31
2024-05-13T02:43:00+09:00,1.7,�k,4.3,�k�k��,17.3,99.9,0.5,2,11,31
2024-05-13T02:44:00+09:00,1.7,�k,4.3,�k�k��,17.4,99.8,0,2,11,31
2024-05-13T02:45:00+09:00,1.8,�k,4.3,�k�k��,17.3,99.8,0,2,11,31
2024-05-13T02:46:00+09:00,1.7,�k,4.3,�k�k��,17.4,99.8,0,2,11,31
2024-05-13T02:47:00+09:00,1.7,�k,4.3,�k�k��,17.4,99.7,0,2,11,31
2024-05-13T02:48:00+09:00,1.8,�k,4.3,�k�k��,17.4,99.7,0,2,11,31
2024-05-13T02:49:00+09:00,1.7,�k,4.3,�k,17.4,99.7,0,2,11,31
2024-05-13T02:50:00+09:00,1.6,�k,4.3,�k,17.5,99.6,0,2,11,31
2024-05-13T02:51:00+09:00,1.6,�k,4.3,�k,17.4,99.6,0,2,11,31
2024-05-13T02:52:00+09:00,1.6,�k,4.3,�k,17.4,99.5,0.5,2.5,11.5,31.5
2024-05-13T02:53:00+09:00,1.6,�k,4.3,�k,17.4,99.5,0.5,2.5,11.5,31.5
2024-05-13T02:54:00+09:00,1.5,�k,4.3,�k,17.4,99.5,0.5,2.5,11.5,31.5
2024-05-13T02:55:00+09:00,1.4,�k,4.3,�k,17.4,99.5,0.5,2,11.5,31.5
2024-05-13T02:56:00+09:00,1.3,�k,4.3,�k,17.4,99.5,0.5,2,11.5,31.5
2024-05-13T02:57:00+09:00,1.2,�k,3.1,�k,17.3,99.5,0.5,2,11.5,31.5
2024-05-13T02:58:00+09:00,1.1,�k,2.9,�k�k��,17.3,99.6,0.5,2,11.5,31.5
2024-05-13T02:59:00+09:00,1,�k�k��,2.6,�k�k��,17.3,99.6,0.5,2,11.5,31.5
2024-05-13T03:00:00+09:00,0.9,�k�k��,2.5,�k�k��,17.3,99.7,0.5,2,11.5,31.5
2024-05-13T03:01:00+09:00,0.8,�k�k��,1.9,�k,17.3,99.7,0.5,2,11.5,31.5
2024-05-13T03:02:00+09:00,0.8,�k�k��,1.8,�k�k��,17.3,99.8,0,2,11.5,31.5
2024-05-13T03:03:00+09:00,0.7,�k�k��,1.8,�k�k��,17.3,99.8,0,2,11.5,31.5
2024-05-13T03:04:00+09:00,0.6,�k�k��,1.7,�k,17.3,99.9,0,2,11.5,31.5
2024-05-13T03:05:00+09:00,0.6,�k�k��,1.3,�k��,17.4,100,0,2,11.5,31.5
2024-05-13T03:06:00+09:00,0.5,�k,1.2,�k��,17.4,100,0,2,11.5,31.5
2024-05-13T03:07:00+09:00,0.5,�k,1,�k��,17.4,99.9,0,2,11.5,31.5
2024-05-13T03:08:00+09:00,0.5,�k�k��,1,�k��,17.4,99.9,0.5,2.5,12,32
2024-05-13T03:09:00+09:00,0.5,�k��,1.1,���쓌,17.3,99.9,0.5,2,12,32
2024-05-13T03:10:00+09:00,0.5,���k��,1.4,�쓌,17.3,99.9,0.5,2,12,32
2024-05-13T03:11:00+09:00,0.6,��,1.7,�쓌,17.2,99.9,0.5,2,12,32
2024-05-13T03:12:00+09:00,0.6,��,1.7,�쓌,17.2,99.9,0.5,2,12,32
2024-05-13T03:13:00+09:00,0.6,���쓌,1.7,�쓌,17.2,99.9,0.5,2,12,32
2024-05-13T03:14:00+09:00,0.7,���쓌,1.7,�쓌,17.2,99.9,0.5,2,12,32
2024-05-13T03:15:00+09:00,0.7,�쓌,1.7,�쓌,17.1,100,0.5,2,12,32
2024-05-13T03:16:00+09:00,0.7,�쓌,1.7,�쓌,17.1,100,0.5,2,12,32
2024-05-13T03:17:00+09:00,0.7,��쓌,1.7,�쓌,17.1,100,0.5,2,12,32
2024-05-13T03:18:00+09:00,0.7,��쓌,1.7,�쓌,17.1,100,0,2,12,32
2024-05-13T03:19:00+09:00,0.6,��,1.7,�쓌,17.1,100,0,2,12,32
2024-05-13T03:20:00+09:00,0.6,��쐼,1.7,�쓌,17.1,100,0,2,12,32
2024-05-13T03:21:00+09:00,0.6,��쐼,1.2,��쓌,17.1,100,0,2,12,32
2024-05-13T03:22:00+09:00,0.6,�쐼,1.1,���k��,17.1,100,0,1.5,12,32
2024-05-13T03:23:00+09:00,0.6,���쐼,1.1,���k��,17.2,100,0,1.5,12,32
2024-05-13T03:24:00+09:00,0.7,���쐼,1.2,�k��,17.2,100,0,1.5,12,32
2024-05-13T03:25:00+09:00,0.8,��,2,�k�k��,17.2,100,0,1.5,12,32
2024-05-13T03:26:00+09:00,0.9,���k��,2.9,�k�k��,17.2,100,0,1.5,12,32
2024-05-13T03:27:00+09:00,1.1,���k��,2.9,�k�k��,17.2,100,0,1.5,12,32
2024-05-13T03:28:00+09:00,1.3,�k��,3.7,�k�k��,17.2,100,0,1.5,12,32
2024-05-13T03:29:00+09:00,1.4,�k��,3.7,�k�k��,17.2,100,0.5,2,12.5,32.5
2024-05-13T03:30:00+09:00,1.5,�k�k��,3.7,�k�k��,17.2,100,0.5,2,12.5,32.5
2024-05-13T03:31:00+09:00,1.6,�k�k��,3.7,�k�k��,17.2,100,0.5,2,12.5,32.5
2024-05-13T03:32:00+09:00,1.6,�k�k��,3.7,�k�k��,17.2,100,0.5,2,12.5,32.5
2024-05-13T03:33:00+09:00,1.7,�k,3.7,�k�k��,17.3,100,0.5,2,12.5,32.5
2024-05-13T03:34:00+09:00,1.7,�k,3.7,�k�k��,17.3,100,0.5,1.5,12.5,32.5
2024-05-13T03:35:00+09:00,1.7,�k,3.7,�k�k��,17.3,100,0.5,1.5,12.5,32.5
2024-05-13T03:36:00+09:00,1.6,�k,3.7,�k�k��,17.3,100,0.5,1.5,12.5,32.5
2024-05-13T03:37:00+09:00,1.4,�k,3.7,�k�k��,17.4,100,0.5,1.5,12.5,32.5
2024-05-13T03:38:00+09:00,1.3,�k,3,�k�k��,17.3,100,0.5,1.5,12.5,32.5
2024-05-13T03:39:00+09:00,1.3,�k,3,�k�k��,17.3,100,0,1.5,12.5,32.5
2024-05-13T03:40:00+09:00,1.2,�k,3,�k�k��,17.3,100,0,1.5,12.5,32.5
2024-05-13T03:41:00+09:00,1.2,�k�k��,2.7,�k�k��,17.3,100,0,1.5,12.5,32.5
2024-05-13T03:42:00+09:00,1.2,�k�k��,2.7,�k�k��,17.2,100,0,1.5,12.5,32.5
2024-05-13T03:43:00+09:00,1.2,�k�k��,2.7,�k�k��,17.2,100,0,1.5,12.5,32.5
2024-05-13T03:44:00+09:00,1.4,�k��,4.5,�k�k��,17.2,100,0,1.5,12.5,32.5
2024-05-13T03:45:00+09:00,1.7,�k��,9.9,�k,17.3,100,0,1.5,12.5,32.5
2024-05-13T03:46:00+09:00,2.6,�k��,15.1,�k,17.3,99.8,0.5,2,13,33
2024-05-13T03:47:00+09:00,3.4,�k��,15.1,�k,17.2,98.9,0.5,2,13,33
2024-05-13T03:48:00+09:00,4.3,�k��,15.1,�k,17,98.3,0.5,2,13,33
2024-05-13T03:49:00+09:00,5,�k�k��,15.9,�k�k��,16.9,97.8,0.5,2,13,33
2024-05-13T03:50:00+09:00,5.8,�k�k��,15.9,�k�k��,16.9,97.2,0.5,2,13,33
2024-05-13T03:51:00+09:00,6.5,�k�k��,15.9,�k�k��,16.8,95.9,0.5,2,13,33
2024-05-13T03:52:00+09:00,7.2,�k�k��,15.9,�k�k��,16.7,95.5,0.5,1.5,13,33
2024-05-13T03:53:00+09:00,7.7,�k,15.9,�k�k��,16.5,95.2,0.5,1.5,13,33
2024-05-13T03:54:00+09:00,8.1,�k,15.9,�k�k��,16.4,95,0.5,1.5,13,33
2024-05-13T03:55:00+09:00,8.4,�k,15.9,�k�k��,16.3,94.9,0.5,1.5,13,33
2024-05-13T03:56:00+09:00,8.2,�k,15.9,�k�k��,16.2,95.2,0,1.5,13,33
2024-05-13T03:57:00+09:00,7.9,�k,15.9,�k�k��,16.2,94.9,0,1.5,13,33
2024-05-13T03:58:00+09:00,7.6,�k,15.9,�k�k��,16,93.1,0,1.5,13,33
2024-05-13T03:59:00+09:00,7.5,�k,14.4,�k�k��,15.9,93.2,0,1.5,13,33
2024-05-13T04:00:00+09:00,7.4,�k,14,�k,15.9,93.2,0,1.5,13,33
2024-05-13T04:01:00+09:00,7.3,�k,13.7,�k�k��,15.8,94.4,0,1.5,13,33
2024-05-13T04:02:00+09:00,7.2,�k,13.7,�k�k��,15.8,94,0,1.5,13,33
2024-05-13T04:03:00+09:00,7.2,�k,13.7,�k�k��,15.7,93.1,0,1.5,13,33
2024-05-13T04:04:00+09:00,7,�k,13.7,�k�k��,15.6,94.4,0,1.5,13,33
2024-05-13T04:05:00+09:00,6.8,�k,13.7,�k�k��,15.7,95.3,0,1.5,13,33
2024-05-13T04:06:00+09:00,6.4,�k,12.5,�k�k��,15.7,93.9,0,1.5,13,33
2024-05-13T04:07:00+09:00,6.2,�k�k��,12.5,�k�k��,15.6,94,0,1.5,13,33
2024-05-13T04:08:00+09:00,6.1,�k�k��,12.2,�k�k��,15.6,93.3,0,1,13,33
2024-05-13T04:09:00+09:00,5.9,�k�k��,12.2,�k�k��,15.6,92.9,0,1,13,33
2024-05-13T04:10:00+09:00,5.5,�k�k��,10.7,�k,15.6,91.9,0,1,13,33
2024-05-13T04:11:00+09:00,5.1,�k�k��,10.2,�k,15.5,92.3,0,1,13,33
2024-05-13T04:12:00+09:00,4.9,�k��,10.2,�k,15.5,91.7,0,1,13,33
2024-05-13T04:13:00+09:00,4.5,�k��,9.5,�k�k��,15.4,92.1,0,1,13,33
2024-05-13T04:14:00+09:00,4.3,�k��,8.6,���k��,15.4,89.5,0,1,13,33
2024-05-13T04:15:00+09:00,4.2,�k��,8.6,���k��,15.4,91.2,0,1,13,33
2024-05-13T04:16:00+09:00,4.1,�k��,8.6,���k��,15.3,90.5,0.5,1.5,13.5,33.5
2024-05-13T04:17:00+09:00,4,�k��,8.6,���k��,15.3,90.8,0.5,1.5,13.5,33.5
2024-05-13T04:18:00+09:00,3.8,�k��,7.3,�k��,15.2,91.7,0.5,1.5,13.5,33.5
2024-05-13T04:19:00+09:00,3.7,�k��,7.3,�k��,15.2,91.1,0.5,1.5,13.5,33.5
2024-05-13T04:20:00+09:00,3.5,�k�k��,7.3,�k��,15.1,89.8,0.5,1.5,13.5,33.5
2024-05-13T04:21:00+09:00,3.6,�k�k��,7.3,�k��,15.1,89,0.5,1.5,13.5,33.5
2024-05-13T04:22:00+09:00,3.6,�k�k��,7.3,�k�k��,15.1,91.4,0.5,1.5,13.5,33.5
2024-05-13T04:23:00+09:00,3.7,�k�k��,7.3,�k�k��,15,88.2,0.5,1.5,13.5,33.5
2024-05-13T04:24:00+09:00,3.9,�k�k��,7.3,�k�k��,15,89.8,0.5,1.5,13.5,33.5
2024-05-13T04:25:00+09:00,4,�k�k��,7.3,�k�k��,14.9,90.8,0.5,1.5,13.5,33.5
2024-05-13T04:26:00+09:00,4.1,�k�k��,7.3,�k�k��,14.9,91,0,1.5,13.5,33.5
2024-05-13T04:27:00+09:00,4,�k�k��,7.3,�k�k��,14.9,91.2,0,1.5,13.5,33.5
2024-05-13T04:28:00+09:00,3.8,�k�k��,7.3,�k�k��,14.9,91.7,0,1.5,13.5,33.5
2024-05-13T04:29:00+09:00,3.6,�k�k��,7.3,�k�k��,14.8,92.5,0,1,13.5,33.5
2024-05-13T04:30:00+09:00,3.7,�k��,7.3,�k�k��,14.8,92.5,0,1,13.5,33.5
2024-05-13T04:31:00+09:00,3.5,�k��,7.3,�k�k��,14.8,92.8,0,1,13.5,33.5
2024-05-13T04:32:00+09:00,3.1,�k��,7.2,�k�k��,14.7,92.7,0,1,13.5,33.5
2024-05-13T04:33:00+09:00,3,�k�k��,7.2,�k�k��,14.7,92.5,0,1,13.5,33.5
2024-05-13T04:34:00+09:00,2.8,�k�k��,7,���k��,14.7,92.6,0,1,13.5,33.5
2024-05-13T04:35:00+09:00,2.5,�k�k��,4.9,���k��,14.6,93.2,0,1,13.5,33.5
2024-05-13T04:36:00+09:00,2.5,�k�k��,5,�k�k��,14.6,93.6,0,1,13.5,33.5
2024-05-13T04:37:00+09:00,2.6,�k�k��,5.2,�k�k��,14.5,93.2,0,1,13.5,33.5
2024-05-13T04:38:00+09:00,2.8,�k�k��,5.2,�k�k��,14.5,94,0,1,13.5,33.5
2024-05-13T04:39:00+09:00,3,�k�k��,6,�k��,14.5,94.2,0,1,13.5,33.5
2024-05-13T04:40:00+09:00,3.2,�k�k��,7.2,�k�k��,14.5,93.2,0,1,13.5,33.5
2024-05-13T04:41:00+09:00,3.7,�k�k��,8.5,�k��,14.5,92,0,1,13.5,33.5
2024-05-13T04:42:00+09:00,4.1,�k��,8.5,�k��,14.5,91.1,0,1,13.5,33.5
2024-05-13T04:43:00+09:00,4.1,�k��,8.5,�k��,14.5,92.1,0,1,13.5,33.5
2024-05-13T04:44:00+09:00,4.2,�k��,8.5,�k��,14.4,92,0,1,13.5,33.5
2024-05-13T04:45:00+09:00,4.3,�k��,8.5,�k��,14.5,90.9,0,1,13.5,33.5
2024-05-13T04:46:00+09:00,4.4,�k��,8.5,�k��,14.5,90.8,0,0.5,13.5,33.5
2024-05-13T04:47:00+09:00,4.5,�k��,8.5,�k��,14.5,90.4,0,0.5,13.5,33.5
2024-05-13T04:48:00+09:00,4.6,�k��,8.5,�k��,14.4,90.6,0,0.5,13.5,33.5
2024-05-13T04:49:00+09:00,4.7,�k��,8.5,�k��,14.4,90.5,0,0.5,13.5,33.5
2024-05-13T04:50:00+09:00,4.6,�k��,8.5,�k��,14.4,89.5,0,0.5,13.5,33.5
2024-05-13T04:51:00+09:00,4.6,�k��,8.7,�k��,14.4,89.5,0,0.5,13.5,33.5
2024-05-13T04:52:00+09:00,4.5,�k��,8.7,�k��,14.4,89.5,0,0.5,13.5,33.5
2024-05-13T04:53:00+09:00,4.7,�k��,8.7,�k��,14.4,89.1,0,0.5,13.5,33.5
2024-05-13T04:54:00+09:00,4.7,�k��,8.7,�k��,14.3,89.8,0,0.5,13.5,33.5
2024-05-13T04:55:00+09:00,4.7,�k��,8.7,�k��,14.2,91.5,0,0.5,13.5,33.5
2024-05-13T04:56:00+09:00,4.6,�k��,8.7,�k��,14.2,91.4,0,0.5,13.5,33.5
2024-05-13T04:57:00+09:00,4.5,�k��,8.7,�k��,14.2,90.8,0,0.5,13.5,33.5
2024-05-13T04:58:00+09:00,4.4,�k��,8.7,�k��,14.2,90.9,0.5,1,14,34
2024-05-13T04:59:00+09:00,4.3,�k��,8.7,�k��,14.2,91.1,0.5,1,14,34
2024-05-13T05:00:00+09:00,4.6,�k��,9.4,�k�k��,14.2,90.6,0.5,1,14,34
2024-05-13T05:01:00+09:00,4.7,�k��,9.5,���k��,14.2,89.8,0.5,1,14,34
2024-05-13T05:02:00+09:00,4.9,�k��,9.7,���k��,14.2,89,0.5,1,14,34
2024-05-13T05:03:00+09:00,5,�k��,9.9,���k��,14.2,88.8,0.5,1,14,34
2024-05-13T05:04:00+09:00,5.3,�k��,9.9,���k��,14.2,88.5,0.5,1,14,34
2024-05-13T05:05:00+09:00,5.5,�k��,9.9,���k��,14.1,89.3,0.5,1,14,34
2024-05-13T05:06:00+09:00,5.7,�k��,9.9,���k��,14.1,90.2,0.5,1,14,34
2024-05-13T05:07:00+09:00,5.8,�k��,9.9,���k��,14,90.4,0.5,1,14,34
2024-05-13T05:08:00+09:00,5.5,�k��,9.9,���k��,14.1,89.5,0,1,14,34
2024-05-13T05:09:00+09:00,5.4,�k��,9.9,���k��,14.1,91.1,0,1,14,34
2024-05-13T05:10:00+09:00,5.1,�k��,9.9,���k��,14.1,90.6,0,1,14,34
2024-05-13T05:11:00+09:00,5.1,�k��,9.9,���k��,14,90.4,0,1,14,34
2024-05-13T05:12:00+09:00,4.8,�k��,9.9,���k��,14,90.8,0,1,14,34
2024-05-13T05:13:00+09:00,4.5,�k��,9,���k��,13.9,92.5,0,1,14,34
2024-05-13T05:14:00+09:00,4.4,�k��,8.5,�k��,13.8,92.6,0,1,14,34
2024-05-13T05:15:00+09:00,4.4,�k��,9.8,���k��,13.9,90.8,0,1,14,34
2024-05-13T05:16:00+09:00,4.5,�k��,9.8,���k��,13.8,90.2,0,0.5,14,34
2024-05-13T05:17:00+09:00,4.7,�k��,9.8,���k��,13.7,91,0,0.5,14,34
2024-05-13T05:18:00+09:00,4.9,�k��,9.8,���k��,13.7,89.4,0,0.5,14,34
2024-05-13T05:19:00+09:00,5,�k��,9.8,���k��,13.6,90.8,0,0.5,14,34
2024-05-13T05:20:00+09:00,4.8,�k��,9.8,���k��,13.7,92.5,0,0.5,14,34
2024-05-13T05:21:00+09:00,4.6,�k��,9.8,���k��,13.6,92.1,0,0.5,14,34
2024-05-13T05:22:00+09:00,4.5,�k��,9.8,���k��,13.6,92.2,0,0.5,14,34
2024-05-13T05:23:00+09:00,4.3,�k��,9.8,���k��,13.5,92.9,0,0.5,14,34
2024-05-13T05:24:00+09:00,4.1,�k��,9.8,���k��,13.5,93.4,0,0.5,14,34
2024-05-13T05:25:00+09:00,3.9,�k��,9.1,�k�k��,13.5,92.3,0,0.5,14,34
2024-05-13T05:26:00+09:00,3.8,�k�k��,9.1,�k�k��,13.6,89.8,0,0.5,14,34
2024-05-13T05:27:00+09:00,3.6,�k�k��,7.1,�k��,13.7,89.1,0,0.5,14,34
2024-05-13T05:28:00+09:00,3.6,�k�k��,7.1,�k��,13.6,90,0,0.5,14,34
2024-05-13T05:29:00+09:00,3.7,�k�k��,7.1,�k��,13.6,86.2,0,0.5,14,34
2024-05-13T05:30:00+09:00,4,�k��,8.2,�k��,13.6,85.1,0,0.5,14,34
2024-05-13T05:31:00+09:00,4.3,�k��,8.2,�k��,13.6,84.3,0,0.5,14,34
2024-05-13T05:32:00+09:00,4.4,�k�k��,8.2,�k��,13.5,83.7,0,0.5,14,34
2024-05-13T05:33:00+09:00,4.6,�k�k��,8.2,�k��,13.5,80.8,0,0.5,14,34
2024-05-13T05:34:00+09:00,4.7,�k�k��,8.2,�k��,13.5,79.3,0,0.5,14,34
2024-05-13T05:35:00+09:00,4.7,�k�k��,8.2,�k��,13.4,83.5,0,0.5,14,34
2024-05-13T05:36:00+09:00,4.6,�k�k��,8.2,�k��,13.4,84.7,0,0.5,14,34
2024-05-13T05:37:00+09:00,4.5,�k�k��,8.2,�k��,13.3,83,0,0.5,14,34
2024-05-13T05:38:00+09:00,4.5,�k�k��,8.2,�k��,13.3,82.4,0,0.5,14,34
2024-05-13T05:39:00+09:00,4.6,�k�k��,8.2,�k��,13.3,81.2,0,0.5,14,34
2024-05-13T05:40:00+09:00,4.5,�k�k��,8,�k�k��,13.3,80.7,0,0.5,14,34
2024-05-13T05:41:00+09:00,4.3,�k�k��,8,�k�k��,13.4,81.5,0,0.5,14,34
2024-05-13T05:42:00+09:00,4.2,�k�k��,7.5,�k�k��,13.3,82.3,0,0.5,14,34
2024-05-13T05:43:00+09:00,4.2,�k�k��,7.3,�k��,13.2,82.7,0,0.5,14,34
2024-05-13T05:44:00+09:00,4.1,�k�k��,7.3,�k��,13.1,83.8,0,0.5,14,34
2024-05-13T05:45:00+09:00,4.2,�k�k��,7.3,�k��,13.1,82.5,0,0.5,14,34
2024-05-13T05:46:00+09:00,4.1,�k�k��,7.3,�k��,13.2,82.1,0,0.5,14,34
2024-05-13T05:47:00+09:00,4.1,�k�k��,7.3,�k��,13.2,82.9,0,0.5,14,34
2024-05-13T05:48:00+09:00,4.1,�k�k��,7.3,�k��,13.2,81,0,0.5,14,34
2024-05-13T05:49:00+09:00,4,�k�k��,6.9,�k�k��,13.2,81.1,0,0.5,14,34
2024-05-13T05:50:00+09:00,3.9,�k�k��,6.9,�k�k��,13.1,81,0,0.5,14,34
2024-05-13T05:51:00+09:00,4,�k�k��,6.9,�k�k��,13.2,80.9,0,0.5,14,34
2024-05-13T05:52:00+09:00,4,�k�k��,6.9,�k�k��,13.2,79.7,0,0.5,14,34
2024-05-13T05:53:00+09:00,4.2,�k�k��,8,�k��,13.2,79.6,0,0.5,14,34
2024-05-13T05:54:00+09:00,4.4,�k�k��,8,�k��,13.1,80,0,0.5,14,34